Dillon, MT

10:44 PM MDT on August 24, 2016 (GMT -0600)
Dillon

Weather History for KDLN - February, 2013

Change the Weather History Date:

Thursday, February 14, 2013

  Actual Average Record
Temperature  
Mean Temperature 31 °F 26 °F  
Max Temperature 41 °F 37 °F 61 °F (2015)
Min Temperature 21 °F 15 °F -31 °F (1936)
Degree Days  
Heating Degree Days 34    
Month to date heating degree days 490  
Since 1 July heating degree days 4890  
Cooling Degree Days 0    
Month to date cooling degree days 0  
Year to date cooling degree days 0  
Moisture  
Dew Point 15 °F    
Average Humidity 51    
Maximum Humidity 74    
Minimum Humidity 27    
Precipitation  
Precipitation 0.00 in 0.01 in 0.23 in (2003)
Month to date precipitation 0.02 0.10  
Year to date precipitation 0.20 0.38  
Snow  
Snow 0.00 in - - ()
Snow Depth T in    
Sea Level Pressure  
Sea Level Pressure 30.30 in    
Wind  
Wind Speed 7 mph (SSW)    
Max Wind Speed 21 mph    
Max Gust Speed 24 mph    
Visibility 10 miles    
Events      
T = Trace of Precipitation, MM = Missing Value Source: NWS Daily Summary

Daily Weather History Graph

Daily Weather History Graph

Search for Another Location

Airport or City:

Trip Planner

Search our weather history database for the weather conditions in past years. The results will help you decide how hot, cold, wet, or windy it might be!

Date:

Astronomy

Feb. 14, 2013 Rise Set
Actual Time 7:32 AM MST 5:56 PM MST
Civil Twilight 7:02 AM MST 6:27 PM MST
Nautical Twilight 6:27 AM MST 7:01 PM MST
Astronomical Twilight 5:53 AM MST 7:35 PM MST
Moon 9:20 AM MST (2/14) 11:21 PM MST (2/14)
Length of Visible Light 11h 25m
Length of Day
10h 24m
Waxing Crescent, 22% of the Moon is Illuminated
Feb 14
Waxing Crescent
Feb 17
First Quarter
Feb 25
Full
Mar 4
Last Quarter
Mar 11
New

Hourly Weather History & Observations

Time (MST) Temp. Windchill Dew Point Humidity Pressure Visibility Wind Dir Wind Speed Gust Speed Precip Events Conditions
12:53 AM 30.0 °F 24.1 °F 21.0 °F 69% 30.17 in 10.0 mi SSE 5.8 mph - N/A   Overcast
1:53 AM 30.0 °F 22.4 °F 21.0 °F 69% 30.18 in 10.0 mi ESE 8.1 mph - N/A   Overcast
2:53 AM 27.0 °F 20.5 °F 18.0 °F 69% 30.22 in 10.0 mi East 5.8 mph - N/A   Overcast
3:53 AM 28.0 °F 24.2 °F 17.1 °F 63% 30.24 in 10.0 mi SSW 3.5 mph - N/A   Overcast
4:53 AM 26.1 °F 17.6 °F 15.1 °F 63% 30.25 in 10.0 mi SW 8.1 mph - N/A   Overcast
5:53 AM 28.0 °F 18.6 °F 12.9 °F 53% 30.25 in 10.0 mi WSW 10.4 mph - N/A   Mostly Cloudy
6:53 AM 27.0 °F 19.5 °F 12.9 °F 56% 30.30 in 10.0 mi West 6.9 mph - N/A   Scattered Clouds
7:53 AM 21.9 °F 17.2 °F 14.0 °F 72% 30.34 in 10.0 mi SSE 3.5 mph - N/A   Clear
8:53 AM 28.0 °F 21.7 °F 15.1 °F 58% 30.32 in 10.0 mi South 5.8 mph - N/A   Clear
9:53 AM 33.1 °F 27.7 °F 14.0 °F 46% 30.32 in 10.0 mi ENE 5.8 mph - N/A   Clear
10:53 AM 33.1 °F 28.7 °F 12.9 °F 43% 30.33 in 10.0 mi SE 4.6 mph - N/A   Clear
11:53 AM 36.0 °F - 10.9 °F 36% 30.31 in 10.0 mi Calm Calm - N/A   Clear
12:53 PM 37.0 °F 32.4 °F 10.0 °F 33% 30.28 in 10.0 mi West 5.8 mph - N/A   Partly Cloudy
1:53 PM 39.9 °F 35.8 °F 9.0 °F 28% 30.27 in 10.0 mi West 5.8 mph - N/A   Clear
2:53 PM 37.9 °F 30.0 °F 10.9 °F 33% 30.29 in 10.0 mi WNW 12.7 mph 18.4 mph N/A   Overcast
3:53 PM 39.0 °F 29.9 °F 15.1 °F 38% 30.29 in 10.0 mi WSW 17.3 mph 23.0 mph N/A   Overcast
4:06 PM 39.2 °F 30.5 °F 14.0 °F 36% 30.22 in 10.0 mi WSW 16.1 mph 23.0 mph N/A   Overcast
4:53 PM 36.0 °F 29.0 °F 14.0 °F 41% 30.32 in 10.0 mi WSW 9.2 mph 24.2 mph N/A   Mostly Cloudy
5:53 PM 33.1 °F 23.0 °F 15.1 °F 48% 30.32 in 10.0 mi WSW 15.0 mph - N/A   Partly Cloudy
6:53 PM 28.9 °F 22.8 °F 14.0 °F 54% 30.38 in 10.0 mi WSW 5.8 mph - N/A   Partly Cloudy
7:53 PM 28.9 °F 22.8 °F 15.1 °F 56% 30.40 in 10.0 mi South 5.8 mph - N/A   Clear
8:53 PM 24.1 °F 17.0 °F 17.1 °F 75% 30.40 in 10.0 mi SE 5.8 mph - N/A   Partly Cloudy
9:53 PM 28.0 °F 22.8 °F 14.0 °F 56% 30.36 in 10.0 mi WSW 4.6 mph - N/A   Clear
10:53 PM 27.0 °F 21.6 °F 16.0 °F 63% 30.38 in 10.0 mi South 4.6 mph - N/A   Clear
11:53 PM 21.9 °F 12.5 °F 15.1 °F 75% 30.41 in 10.0 mi SE 8.1 mph - N/A   Clear